Location: C�mpuri de-Sus
(45.9500°N, 22.5500°E)
Time: 11:30:20
(UTC+00:00)

H-2A R/B - Pass Details

Date: 24 October 2021
Orbit: 732 x 837 km, 98.2° (Epoch: 07 December)

Event Time Altitude Azimuth Distance (km) Brightness Sun altitude
Rises 17:34:16 0° 200° (SSW) 3,343 5.5 -22.5°
Reaches altitude 10° 17:37:00 10° 213° (SSW) 2,427 4.9 -23.0°
Maximum altitude 17:41:24 25° 268° (W) 1,625 4.4 -23.8°
Drops below altitude 10° 17:45:51 10° 323° (NW) 2,460 5.2 -24.5°
Sets 17:48:40 0° 336° (NNW) 3,399 5.8 -25.0°
